This is the latest recevied weather packets stored in our database for station/object WP3OF-1. If no packets are shown the sender has not sent any weather packets the latest 10 day(s).
| Time | Temp. | Humidity | Pressure | Rain* | Wind** | Luminosity | Snow |
|---|---|---|---|---|---|---|---|
| 1777732948 | 28.89° C | 73% | 1018.2 hPa | 0 mm | - | - | - |
| 1777732644 | 28.33° C | 73% | 1018 hPa | 0 mm | - | - | - |
| 1777732341 | 28.89° C | 70% | 1018.3 hPa | 0 mm | - | - | - |
| 1777732040 | 28.33° C | 72% | 1018.1 hPa | 0 mm | - | - | - |
| 1777731736 | 28.33° C | 72% | 1018.1 hPa | 0 mm | - | - | - |
| 1777731433 | 28.33° C | 74% | 1018.2 hPa | 0 mm | - | - | - |
| 1777731131 | 27.78° C | 75% | 1018.1 hPa | 0 mm | - | - | - |
| 1777730525 | 27.78° C | 76% | 1018.1 hPa | 0 mm | - | - | - |
| 1777730221 | 28.33° C | 76% | 1018.1 hPa | 0 mm | - | - | - |
| 1777729918 | 27.78° C | 74% | 1018.1 hPa | 0 mm | - | - | - |
| 1777729614 | 27.78° C | 76% | 1017.9 hPa | 0 mm | - | - | - |
| 1777729311 | 27.78° C | 77% | 1018 hPa | 0 mm | - | - | - |
| 1777729008 | 27.22° C | 78% | 1018.1 hPa | 0 mm | - | - | - |
| 1777728704 | 26.67° C | 79% | 1017.9 hPa | 0 mm | - | - | - |
| 1777728401 | 27.22° C | 77% | 1018.1 hPa | 0 mm | - | - | - |
| 1777728098 | 27.22° C | 79% | 1018 hPa | 0 mm | - | - | - |
| 1777727795 | 27.22° C | 78% | 1018.1 hPa | 0 mm | - | - | - |
| 1777727492 | 27.78° C | 78% | 1017.9 hPa | 0 mm | - | - | - |
| 1777727190 | 27.78° C | 77% | 1018 hPa | 0 mm | - | - | - |
| 1777726888 | 27.78° C | 78% | 1017.8 hPa | 0 mm | - | - | - |
| 1777726583 | 27.78° C | 79% | 1017.7 hPa | 0 mm | - | - | - |
| 1777726281 | 27.22° C | 79% | 1017.7 hPa | 0 mm | - | - | - |
| 1777725977 | 27.78° C | 78% | 1017.2 hPa | 0 mm | - | - | - |
| 1777725674 | 27.22° C | 79% | 1017.4 hPa | 0 mm | - | - | - |
| 1777725373 | 27.78° C | 78% | 1017.6 hPa | 0 mm | - | - | - |
* Rain latest hour (hover to see other rain measurements)
** Current wind speed in m/s (hover to see current wind gust speed)